Terug naar catalogus

STARLINK-3897

ActiefCommunicatieVLEO
NORAD 52537·PAYLOAD·🇺🇸 United States

Gelanceerd May 13, 2022 vanaf Vandenberg Space Force Base

Loading…

Volgende Passages (komende 24 uur)

TLE

VersSource: CelesTrak SupGP

Epoch: Sep 15, 2026, 02:22 UTC

1 52537C 22051E   26258.09909722  .00049011  00000+0  14481-2 0  2585
2 52537  53.1597 347.3213 0001305  85.5931 187.4635 15.34365236    10

Volg STARLINK-3897 in realtime met AllMySat

Download on the App Store